Location: Mahannah Oil Field
(37.4664°N, 96.6003°W)
Time: 03:38:41
(UTC+00:00)

A-11 Canister half - Pass Details

Date: 01 February 2021
Orbit: 1525 x 1684 km, 47.3° (Epoch: 02 March)

Event Time Altitude Azimuth Distance (km) Brightness Sun altitude
Rises 02:06:39 0° 300° (WNW) 4,747 12.4 -27.3°
Reaches altitude 10° 02:09:50 10° 295° (WNW) 3,781 11.8 -27.9°
Maximum altitude 02:18:52 48° 225° (SW) 2,031 9.8 -29.7°
Enters shadow 02:26:31 16° 159° (SSE) 3,406 10.6 -31.2°
Drops below altitude 10° 02:28:11 10° 155° (SSE) 3,887 - -31.6°
Sets 02:31:30 0° 150° (SSE) 4,889 - -32.2°
